Location: Unspecified
(0.0000°N, 0.0000°E)
Time: 00:25:40
(UTC+00:00)

Explorer 7 - Pass Details

Date: 23 July 2019
Orbit: 485 x 680 km, 50.3° (Epoch: 16 August)

Event Time Altitude Azimuth Distance (km) Brightness Sun altitude
Rises 18:27:56 0° 237° (WSW) 2,815 11.0 -5.0°
Reaches altitude 10° 18:30:34 10° 250° (WSW) 1,873 10.4 -5.6°
Maximum altitude 18:34:05 25° 306° (NW) 1,130 9.5 -6.5°
Drops below altitude 10° 18:37:26 10° 2° (N) 1,769 9.7 -7.3°
Sets 18:39:52 0° 16° (NNE) 2,622 10.3 -7.8°
